Location: Rio Negrinho
(26.2394°S, 49.4999°W)
Time: 20:22:05
(UTC+00:00)

Envisat - Pass Details

Date: 30 July 2021
Orbit: 764 x 766 km, 98.2° (Epoch: 17 September)

Event Time Altitude Azimuth Distance (km) Brightness Sun altitude
Rises 07:57:17 0° 12° (NNE) 3,213 6.5 -27.1°
Reaches altitude 10° 07:59:34 10° 11° (N) 2,294 5.7 -26.6°
Maximum altitude 08:04:38 85° 283° (WNW) 777 2.8 -25.5°
Enters shadow 08:05:24 65° 204° (SSW) 846 3.0 -25.3°
